CFS8651 KSLC-KASE

Flight info

Callsign CFS8651
Flight time 1h 27m
Altitude 15000
Route TCH J173 EKR DBL
Aircraft C208/L-SDF/C

Departure

Time 2026-05-04 22:53
Airport Salt Lake City International Airport (KSLC)

Arrival

Time 2026-05-05 00:20
Airport Aspen-Pitkin County Airport (Sardy Field) (KASE)
Time Latitude Longitude Altitude Speed Heading
2026-05-04 22:37 40.80535 -111.98590 4230 ft 0 kts 264°
2026-05-04 22:48 40.80573 -111.98614 4230 ft 15 kts 21°
2026-05-04 22:48 40.80600 -111.98426 4230 ft 28 kts 84°
2026-05-04 22:49 40.80621 -111.98145 4229 ft 28 kts 85°
2026-05-04 22:49 40.80540 -111.98016 4229 ft 19 kts 174°
2026-05-04 22:49 40.80396 -111.97996 4230 ft 24 kts 170°
2026-05-04 22:49 40.80207 -111.97948 4230 ft 33 kts 174°
2026-05-04 22:50 40.79952 -111.97922 4230 ft 40 kts 174°
2026-05-04 22:50 40.79652 -111.97884 4229 ft 46 kts 176°
2026-05-04 22:50 40.79319 -111.97845 4229 ft 50 kts 174°
2026-05-04 22:50 40.78976 -111.97807 4230 ft 43 kts 174°
2026-05-04 22:51 40.78750 -111.97780 4230 ft 23 kts 176°
2026-05-04 22:51 40.78613 -111.97762 4230 ft 21 kts 176°
2026-05-04 22:51 40.78528 -111.97672 4229 ft 22 kts 40°
2026-05-04 22:51 40.78633 -111.97583 4230 ft 22 kts 84°
2026-05-04 22:52 40.78661 -111.97455 4229 ft 0 kts 355°
2026-05-04 22:52 40.78788 -111.97469 4231 ft 44 kts 355°
2026-05-04 22:52 40.79252 -111.97523 4229 ft 88 kts 355°
2026-05-04 22:53 40.79932 -111.97591 4374 ft 102 kts 352°
2026-05-04 22:53 40.80643 -111.97670 4649 ft 99 kts 348°
2026-05-04 22:53 40.81335 -111.97680 4914 ft 102 kts 356°
2026-05-04 22:53 40.82060 -111.97656 5161 ft 106 kts 355°
2026-05-04 22:54 40.82765 -111.97309 5404 ft 118 kts 46°
2026-05-04 22:54 40.83049 -111.96293 5670 ft 123 kts 97°
2026-05-04 22:54 40.82891 -111.95175 5944 ft 126 kts 101°
2026-05-04 22:54 40.82751 -111.94030 6228 ft 128 kts 102°
2026-05-04 22:55 40.82597 -111.92851 6490 ft 131 kts 102°
2026-05-04 22:55 40.82445 -111.91659 6753 ft 132 kts 102°
2026-05-04 22:55 40.82293 -111.90471 7016 ft 133 kts 102°
2026-05-04 22:55 40.82137 -111.89246 7264 ft 137 kts 102°
2026-05-04 22:56 40.81980 -111.88004 7506 ft 137 kts 101°
2026-05-04 22:56 40.81822 -111.86776 7761 ft 134 kts 100°
2026-05-04 22:56 40.81668 -111.85570 8018 ft 132 kts 100°
2026-05-04 22:56 40.81517 -111.84379 8274 ft 131 kts 101°
2026-05-04 22:57 40.81365 -111.83188 8506 ft 132 kts 102°
2026-05-04 22:57 40.81214 -111.81995 8749 ft 130 kts 102°
2026-05-04 22:57 40.81062 -111.80816 8991 ft 129 kts 102°
2026-05-04 22:57 40.80914 -111.79653 9232 ft 128 kts 102°
2026-05-04 22:58 40.80767 -111.78500 9481 ft 127 kts 102°
2026-05-04 22:58 40.80618 -111.77352 9724 ft 125 kts 102°
2026-05-04 22:58 40.80476 -111.76221 9970 ft 124 kts 102°
2026-05-04 22:58 40.80332 -111.75102 10211 ft 123 kts 102°
2026-05-04 22:59 40.80188 -111.73982 10466 ft 124 kts 102°
2026-05-04 22:59 40.80037 -111.72841 10711 ft 125 kts 102°
2026-05-04 22:59 40.79894 -111.71714 10959 ft 124 kts 102°
2026-05-04 22:59 40.79753 -111.70621 11202 ft 121 kts 102°
2026-05-04 23:00 40.79612 -111.69531 11445 ft 120 kts 102°
2026-05-04 23:00 40.79474 -111.68452 11680 ft 118 kts 102°
2026-05-04 23:00 40.79341 -111.67402 11928 ft 115 kts 102°
2026-05-04 23:00 40.79204 -111.66354 12170 ft 116 kts 102°
2026-05-04 23:01 40.79068 -111.65310 12415 ft 115 kts 102°
2026-05-04 23:01 40.78936 -111.64275 12655 ft 114 kts 102°
2026-05-04 23:01 40.78807 -111.63269 12887 ft 108 kts 102°
2026-05-04 23:01 40.78684 -111.62299 13055 ft 109 kts 102°
2026-05-04 23:02 40.78550 -111.61298 13201 ft 114 kts 103°
2026-05-04 23:02 40.78346 -111.60234 13275 ft 125 kts 105°
2026-05-04 23:02 40.78142 -111.59065 13369 ft 136 kts 105°
2026-05-04 23:02 40.77918 -111.57796 13483 ft 147 kts 105°
2026-05-04 23:03 40.77682 -111.56466 13667 ft 151 kts 105°
2026-05-04 23:03 40.77441 -111.55102 13842 ft 154 kts 104°
2026-05-04 23:03 40.77194 -111.53712 14006 ft 156 kts 104°
2026-05-04 23:03 40.76945 -111.52304 14164 ft 158 kts 104°
2026-05-04 23:04 40.76693 -111.50884 14319 ft 160 kts 104°
2026-05-04 23:04 40.76442 -111.49470 14471 ft 161 kts 104°
2026-05-04 23:04 40.76182 -111.48019 14626 ft 163 kts 104°
2026-05-04 23:04 40.75922 -111.46560 14778 ft 164 kts 104°
2026-05-04 23:05 40.75660 -111.45091 14895 ft 167 kts 104°
2026-05-04 23:05 40.75383 -111.43559 14902 ft 175 kts 104°
2026-05-04 23:05 40.75098 -111.41971 14911 ft 180 kts 104°
2026-05-04 23:05 40.74808 -111.40349 14915 ft 184 kts 104°
2026-05-04 23:06 40.74512 -111.38695 14916 ft 186 kts 104°
2026-05-04 23:06 40.74214 -111.37031 14915 ft 187 kts 104°
2026-05-04 23:06 40.73915 -111.35360 14918 ft 188 kts 104°
2026-05-04 23:06 40.73610 -111.33670 14917 ft 189 kts 104°
2026-05-04 23:07 40.73307 -111.31975 14917 ft 190 kts 104°
2026-05-04 23:07 40.73001 -111.30277 14917 ft 191 kts 104°
2026-05-04 23:07 40.72694 -111.28577 14918 ft 190 kts 104°
2026-05-04 23:07 40.72389 -111.26878 14917 ft 190 kts 104°
2026-05-04 23:08 40.72086 -111.25203 14919 ft 191 kts 104°
2026-05-04 23:08 40.71777 -111.23496 14918 ft 191 kts 104°
2026-05-04 23:08 40.71493 -111.21784 14918 ft 191 kts 102°
2026-05-04 23:08 40.71210 -111.20077 14918 ft 191 kts 103°
2026-05-04 23:09 40.70900 -111.18383 14916 ft 190 kts 104°
2026-05-04 23:09 40.70594 -111.16733 14915 ft 189 kts 104°
2026-05-04 23:09 40.70280 -111.15013 14916 ft 189 kts 104°
2026-05-04 23:09 40.69975 -111.13328 14914 ft 189 kts 104°
2026-05-04 23:10 40.69669 -111.11643 14911 ft 189 kts 104°
2026-05-04 23:10 40.69368 -111.09991 14912 ft 189 kts 104°
2026-05-04 23:10 40.69059 -111.08288 14913 ft 188 kts 104°
2026-05-04 23:10 40.68754 -111.06613 14914 ft 188 kts 104°
2026-05-04 23:11 40.68448 -111.04936 14910 ft 187 kts 104°
2026-05-04 23:11 40.68145 -111.03270 14910 ft 187 kts 104°
2026-05-04 23:11 40.67838 -111.01602 14920 ft 188 kts 104°
2026-05-04 23:11 40.67533 -110.99926 14929 ft 189 kts 104°
2026-05-04 23:12 40.67227 -110.98237 14931 ft 190 kts 104°
2026-05-04 23:12 40.66914 -110.96547 14932 ft 190 kts 104°
2026-05-04 23:12 40.66603 -110.94857 14932 ft 190 kts 104°
2026-05-04 23:12 40.66293 -110.93161 14932 ft 191 kts 104°
2026-05-04 23:13 40.65981 -110.91461 14934 ft 191 kts 104°
2026-05-04 23:13 40.65673 -110.89777 14934 ft 191 kts 104°
2026-05-04 23:13 40.65360 -110.88074 14935 ft 191 kts 104°
2026-05-04 23:13 40.65048 -110.86378 14935 ft 190 kts 104°
2026-05-04 23:14 40.64734 -110.84685 14931 ft 190 kts 104°
2026-05-04 23:14 40.64423 -110.82992 14932 ft 192 kts 104°
2026-05-04 23:14 40.64107 -110.81282 14934 ft 192 kts 103°
2026-05-04 23:14 40.63795 -110.79574 14935 ft 192 kts 104°
2026-05-04 23:15 40.63481 -110.77868 14932 ft 191 kts 104°
2026-05-04 23:15 40.63162 -110.76158 14936 ft 194 kts 104°
2026-05-04 23:15 40.62837 -110.74433 14937 ft 194 kts 104°
2026-05-04 23:15 40.62522 -110.72704 14937 ft 193 kts 103°
2026-05-04 23:16 40.62204 -110.70992 14933 ft 191 kts 104°
2026-05-04 23:16 40.61891 -110.69290 14939 ft 192 kts 104°
2026-05-04 23:16 40.61576 -110.67604 14940 ft 193 kts 104°
2026-05-04 23:16 40.61253 -110.65898 14937 ft 190 kts 103°
2026-05-04 23:17 40.60944 -110.64215 14936 ft 189 kts 104°
2026-05-04 23:17 40.60631 -110.62532 14937 ft 189 kts 104°
2026-05-04 23:17 40.60319 -110.60839 14935 ft 190 kts 104°
2026-05-04 23:17 40.60000 -110.59154 14934 ft 190 kts 104°
2026-05-04 23:18 40.59683 -110.57465 14934 ft 190 kts 104°
2026-05-04 23:18 40.59368 -110.55767 14935 ft 191 kts 104°
2026-05-04 23:18 40.59049 -110.54064 14938 ft 192 kts 104°
2026-05-04 23:18 40.58729 -110.52359 14940 ft 193 kts 104°
2026-05-04 23:19 40.58409 -110.50649 14942 ft 191 kts 104°
2026-05-04 23:19 40.58089 -110.48950 14944 ft 192 kts 104°
2026-05-04 23:19 40.57769 -110.47237 14944 ft 193 kts 104°
2026-05-04 23:19 40.57451 -110.45546 14947 ft 193 kts 104°
2026-05-04 23:20 40.57128 -110.43832 14946 ft 193 kts 104°
2026-05-04 23:20 40.56805 -110.42121 14946 ft 193 kts 104°
2026-05-04 23:20 40.56484 -110.40410 14944 ft 193 kts 104°
2026-05-04 23:20 40.56161 -110.38700 14943 ft 192 kts 104°
2026-05-04 23:21 40.55838 -110.36986 14933 ft 193 kts 104°
2026-05-04 23:21 40.55515 -110.35275 14925 ft 192 kts 104°
2026-05-04 23:21 40.55194 -110.33584 14927 ft 191 kts 104°
2026-05-04 23:21 40.54872 -110.31881 14931 ft 192 kts 104°
2026-05-04 23:22 40.54547 -110.30171 14931 ft 193 kts 104°
2026-05-04 23:22 40.54223 -110.28459 14933 ft 193 kts 104°
2026-05-04 23:22 40.53899 -110.26748 14930 ft 192 kts 104°
2026-05-04 23:22 40.53575 -110.25045 14931 ft 193 kts 104°
2026-05-04 23:23 40.53250 -110.23337 14930 ft 192 kts 104°
2026-05-04 23:23 40.52927 -110.21634 14931 ft 192 kts 104°
2026-05-04 23:23 40.52601 -110.19927 14932 ft 192 kts 105°
2026-05-04 23:23 40.52277 -110.18221 14931 ft 192 kts 104°
2026-05-04 23:24 40.52061 -110.17092 14931 ft 192 kts 105°
2026-05-04 23:24 40.51630 -110.14835 14931 ft 192 kts 104°
2026-05-04 23:24 40.51412 -110.13689 14929 ft 192 kts 105°
2026-05-04 23:24 40.50978 -110.11433 14931 ft 192 kts 105°
2026-05-04 23:25 40.50654 -110.09728 14931 ft 192 kts 105°
2026-05-04 23:25 40.50327 -110.08022 14922 ft 193 kts 105°
2026-05-04 23:25 40.50106 -110.06874 14922 ft 192 kts 105°
2026-05-04 23:25 40.49779 -110.05168 14922 ft 193 kts 105°
2026-05-04 23:26 40.49455 -110.03485 14913 ft 193 kts 105°
2026-05-04 23:26 40.49128 -110.01776 14914 ft 193 kts 105°
2026-05-04 23:26 40.48798 -110.00067 14914 ft 193 kts 105°
2026-05-04 23:26 40.48470 -109.98361 14913 ft 193 kts 105°
2026-05-04 23:27 40.48141 -109.96652 14912 ft 193 kts 105°
2026-05-04 23:27 40.47811 -109.94945 14912 ft 193 kts 105°
2026-05-04 23:27 40.47481 -109.93236 14912 ft 193 kts 105°
2026-05-04 23:27 40.47151 -109.91527 14913 ft 193 kts 105°
2026-05-04 23:28 40.46822 -109.89818 14913 ft 193 kts 105°
2026-05-04 23:28 40.46490 -109.88105 14912 ft 193 kts 105°
2026-05-04 23:28 40.46158 -109.86395 14913 ft 193 kts 105°
2026-05-04 23:28 40.45827 -109.84685 14913 ft 193 kts 105°
2026-05-04 23:29 40.45499 -109.82993 14911 ft 194 kts 105°
2026-05-04 23:29 40.45167 -109.81283 14905 ft 194 kts 105°
2026-05-04 23:29 40.44833 -109.79562 14904 ft 194 kts 105°
2026-05-04 23:29 40.44500 -109.77849 14905 ft 194 kts 105°
2026-05-04 23:30 40.44165 -109.76134 14904 ft 194 kts 105°
2026-05-04 23:30 40.43833 -109.74424 14903 ft 194 kts 105°
2026-05-04 23:30 40.43499 -109.72713 14904 ft 193 kts 105°
2026-05-04 23:30 40.43165 -109.71004 14905 ft 194 kts 105°
2026-05-04 23:31 40.42831 -109.69292 14904 ft 193 kts 105°
2026-05-04 23:31 40.42495 -109.67579 14904 ft 193 kts 105°
2026-05-04 23:31 40.42162 -109.65868 14896 ft 194 kts 105°
2026-05-04 23:31 40.41825 -109.64147 14895 ft 194 kts 105°
2026-05-04 23:32 40.41489 -109.62440 14897 ft 194 kts 105°
2026-05-04 23:32 40.41153 -109.60730 14898 ft 194 kts 105°
2026-05-04 23:32 40.40819 -109.59023 14897 ft 194 kts 105°
2026-05-04 23:32 40.40482 -109.57309 14899 ft 194 kts 105°
2026-05-04 23:33 40.40149 -109.55617 14898 ft 194 kts 105°
2026-05-04 23:33 40.39813 -109.53911 14897 ft 193 kts 105°
2026-05-04 23:33 40.39476 -109.52202 14898 ft 193 kts 105°
2026-05-04 23:33 40.39140 -109.50494 14897 ft 193 kts 105°
2026-05-04 23:34 40.38802 -109.48785 14897 ft 194 kts 105°
2026-05-04 23:34 40.38465 -109.47077 14898 ft 193 kts 105°
2026-05-04 23:34 40.38127 -109.45368 14897 ft 193 kts 105°
2026-05-04 23:34 40.37789 -109.43660 14898 ft 193 kts 105°
2026-05-04 23:35 40.37451 -109.41953 14898 ft 193 kts 105°
2026-05-04 23:35 40.37113 -109.40246 14896 ft 193 kts 105°
2026-05-04 23:35 40.36773 -109.38533 14896 ft 194 kts 105°
2026-05-04 23:35 40.36435 -109.36824 14892 ft 194 kts 105°
2026-05-04 23:36 40.36101 -109.35130 14895 ft 194 kts 105°
2026-05-04 23:36 40.35759 -109.33419 14896 ft 194 kts 105°
2026-05-04 23:36 40.35417 -109.31711 14895 ft 194 kts 105°
2026-05-04 23:36 40.35076 -109.29999 14896 ft 194 kts 105°
2026-05-04 23:37 40.34735 -109.28289 14895 ft 194 kts 105°
2026-05-04 23:37 40.34394 -109.26579 14896 ft 194 kts 105°
2026-05-04 23:37 40.34052 -109.24867 14896 ft 194 kts 105°
2026-05-04 23:37 40.33710 -109.23157 14898 ft 194 kts 105°
2026-05-04 23:38 40.33366 -109.21446 14896 ft 194 kts 105°
2026-05-04 23:38 40.33023 -109.19726 14893 ft 194 kts 105°
2026-05-04 23:38 40.32681 -109.18016 14892 ft 195 kts 105°
2026-05-04 23:38 40.32337 -109.16301 14893 ft 195 kts 105°
2026-05-04 23:39 40.31992 -109.14583 14894 ft 195 kts 105°
2026-05-04 23:39 40.31649 -109.12870 14893 ft 194 kts 105°
2026-05-04 23:39 40.31304 -109.11155 14892 ft 195 kts 105°
2026-05-04 23:39 40.30958 -109.09437 14894 ft 194 kts 105°
2026-05-04 23:40 40.30619 -109.07752 14894 ft 194 kts 105°
2026-05-04 23:40 40.30274 -109.06043 14893 ft 194 kts 105°
2026-05-04 23:40 40.29929 -109.04333 14893 ft 194 kts 105°
2026-05-04 23:40 40.29584 -109.02623 14893 ft 194 kts 105°
2026-05-04 23:41 40.29238 -109.00910 14894 ft 195 kts 105°
2026-05-04 23:41 40.28891 -108.99195 14894 ft 195 kts 105°
2026-05-04 23:41 40.28544 -108.97478 14892 ft 195 kts 105°
2026-05-04 23:41 40.28197 -108.95763 14892 ft 195 kts 105°
2026-05-04 23:42 40.27849 -108.94045 14891 ft 195 kts 105°
2026-05-04 23:42 40.27500 -108.92329 14891 ft 195 kts 105°
2026-05-04 23:42 40.27152 -108.90616 14892 ft 195 kts 105°
2026-05-04 23:42 40.26804 -108.88906 14891 ft 195 kts 105°
2026-05-04 23:43 40.26457 -108.87195 14892 ft 194 kts 106°
2026-05-04 23:43 40.26108 -108.85485 14892 ft 194 kts 105°
2026-05-04 23:43 40.25760 -108.83775 14900 ft 194 kts 106°
2026-05-04 23:43 40.25416 -108.82091 14899 ft 194 kts 106°
2026-05-04 23:44 40.25067 -108.80374 14897 ft 195 kts 105°
2026-05-04 23:44 40.24733 -108.78668 14899 ft 194 kts 105°
2026-05-04 23:44 40.24387 -108.76947 14898 ft 195 kts 105°
2026-05-04 23:44 40.24034 -108.75239 14898 ft 195 kts 106°
2026-05-04 23:45 40.23681 -108.73533 14897 ft 195 kts 105°
2026-05-04 23:45 40.23330 -108.71818 14896 ft 195 kts 105°
2026-05-04 23:45 40.22980 -108.70108 14896 ft 195 kts 105°
2026-05-04 23:45 40.22628 -108.68391 14894 ft 195 kts 105°
2026-05-04 23:46 40.22278 -108.66683 14894 ft 195 kts 105°
2026-05-04 23:46 40.21924 -108.64964 14894 ft 195 kts 106°
2026-05-04 23:46 40.21570 -108.63246 14894 ft 196 kts 105°
2026-05-04 23:46 40.21216 -108.61525 14894 ft 196 kts 105°
2026-05-04 23:47 40.20863 -108.59800 14893 ft 197 kts 106°
2026-05-04 23:47 40.20507 -108.58069 14891 ft 196 kts 106°
2026-05-04 23:47 40.20149 -108.56346 14891 ft 197 kts 106°
2026-05-04 23:47 40.19793 -108.54613 14890 ft 196 kts 106°
2026-05-04 23:48 40.19442 -108.52921 14900 ft 196 kts 106°
2026-05-04 23:48 40.19085 -108.51205 14899 ft 196 kts 106°
2026-05-04 23:48 40.18729 -108.49486 14900 ft 196 kts 106°
2026-05-04 23:48 40.18373 -108.47768 14899 ft 196 kts 106°
2026-05-04 23:49 40.18016 -108.46047 14898 ft 196 kts 106°
2026-05-04 23:49 40.17659 -108.44321 14899 ft 196 kts 106°
2026-05-04 23:49 40.17301 -108.42606 14899 ft 196 kts 106°
2026-05-04 23:49 40.16942 -108.40881 14898 ft 195 kts 106°
2026-05-04 23:50 40.16592 -108.39195 14897 ft 195 kts 106°
2026-05-04 23:50 40.16235 -108.37483 14899 ft 195 kts 106°
2026-05-04 23:50 40.15880 -108.35772 14899 ft 195 kts 106°
2026-05-04 23:50 40.15522 -108.34063 14900 ft 195 kts 106°
2026-05-04 23:51 40.15166 -108.32360 14909 ft 194 kts 106°
2026-05-04 23:51 40.14808 -108.30646 14906 ft 195 kts 106°
2026-05-04 23:51 40.14450 -108.28935 14908 ft 195 kts 106°
2026-05-04 23:51 40.14092 -108.27224 14907 ft 196 kts 106°
2026-05-04 23:52 40.13732 -108.25507 14909 ft 196 kts 106°
2026-05-04 23:52 40.13372 -108.23792 14908 ft 197 kts 106°
2026-05-04 23:52 40.13011 -108.22066 14907 ft 196 kts 106°
2026-05-04 23:52 40.12650 -108.20345 14906 ft 196 kts 106°
2026-05-04 23:53 40.12287 -108.18623 14909 ft 197 kts 106°
2026-05-04 23:53 40.11926 -108.16903 14909 ft 196 kts 106°
2026-05-04 23:53 40.11568 -108.15195 14920 ft 195 kts 106°
2026-05-04 23:53 40.11206 -108.13480 14920 ft 196 kts 107°
2026-05-04 23:54 40.10844 -108.11765 14920 ft 196 kts 107°
2026-05-04 23:54 40.10480 -108.10041 14918 ft 196 kts 106°
2026-05-04 23:54 40.10117 -108.08323 14916 ft 196 kts 107°
2026-05-04 23:54 40.09755 -108.06605 14916 ft 197 kts 106°
2026-05-04 23:55 40.09391 -108.04883 14917 ft 197 kts 107°
2026-05-04 23:55 40.09031 -108.03188 14918 ft 196 kts 107°
2026-05-04 23:55 40.08308 -107.99758 14918 ft 196 kts 107°
2026-05-04 23:56 40.07942 -107.98041 14918 ft 195 kts 107°
2026-05-04 23:56 40.07577 -107.96329 14919 ft 195 kts 107°
2026-05-04 23:56 40.07212 -107.94611 14916 ft 196 kts 107°
2026-05-04 23:56 40.06835 -107.92901 14913 ft 196 kts 111°
2026-05-04 23:57 40.06127 -107.91412 14917 ft 192 kts 131°
2026-05-04 23:57 40.05288 -107.90051 14922 ft 192 kts 130°
2026-05-04 23:57 40.04469 -107.88669 14921 ft 193 kts 130°
2026-05-04 23:57 40.03655 -107.87308 14920 ft 193 kts 130°
2026-05-04 23:58 40.02828 -107.85936 14919 ft 192 kts 130°
2026-05-04 23:58 40.02000 -107.84559 14919 ft 192 kts 130°
2026-05-04 23:58 40.01175 -107.83191 14919 ft 192 kts 130°
2026-05-04 23:58 40.00349 -107.81819 14919 ft 192 kts 130°
2026-05-04 23:59 39.99523 -107.80443 14921 ft 193 kts 130°
2026-05-04 23:59 39.98694 -107.79065 14920 ft 193 kts 130°
2026-05-04 23:59 39.97865 -107.77688 14917 ft 193 kts 130°
2026-05-04 23:59 39.97034 -107.76311 14917 ft 192 kts 130°
2026-05-05 00:00 39.96208 -107.74943 14917 ft 193 kts 130°
2026-05-05 00:00 39.95936 -107.74490 14918 ft 193 kts 130°
2026-05-05 00:00 39.94546 -107.72184 14917 ft 194 kts 130°
2026-05-05 00:00 39.93841 -107.70677 14901 ft 196 kts 118°
2026-05-05 00:01 39.93059 -107.69247 14848 ft 194 kts 141°
2026-05-05 00:01 39.92066 -107.68049 14832 ft 195 kts 135°
2026-05-05 00:01 39.91199 -107.66689 14817 ft 196 kts 130°
2026-05-05 00:01 39.90375 -107.65297 14790 ft 197 kts 131°
2026-05-05 00:02 39.89513 -107.63907 14767 ft 197 kts 131°
2026-05-05 00:02 39.88661 -107.62514 14745 ft 197 kts 131°
2026-05-05 00:02 39.87820 -107.61115 14723 ft 196 kts 130°
2026-05-05 00:02 39.86975 -107.59715 14699 ft 197 kts 131°
2026-05-05 00:03 39.86126 -107.58316 14674 ft 197 kts 131°
2026-05-05 00:03 39.85278 -107.56918 14647 ft 196 kts 131°
2026-05-05 00:03 39.84431 -107.55521 14621 ft 195 kts 131°
2026-05-05 00:03 39.83590 -107.54134 14594 ft 195 kts 131°
2026-05-05 00:04 39.82750 -107.52751 14574 ft 195 kts 131°
2026-05-05 00:04 39.81906 -107.51361 14542 ft 196 kts 131°
2026-05-05 00:04 39.81057 -107.49961 14519 ft 198 kts 130°
2026-05-05 00:04 39.80211 -107.48567 14491 ft 199 kts 130°
2026-05-05 00:05 39.79349 -107.47154 14470 ft 200 kts 130°
2026-05-05 00:05 39.78482 -107.45731 14413 ft 202 kts 130°
2026-05-05 00:05 39.77603 -107.44287 14312 ft 205 kts 130°
2026-05-05 00:05 39.76719 -107.42836 14239 ft 205 kts 130°
2026-05-05 00:06 39.75837 -107.41389 14163 ft 203 kts 129°
2026-05-05 00:06 39.74967 -107.39959 14086 ft 202 kts 130°
2026-05-05 00:06 39.74102 -107.38544 14020 ft 203 kts 130°
2026-05-05 00:06 39.73223 -107.37103 13947 ft 203 kts 130°
2026-05-05 00:07 39.72344 -107.35664 13873 ft 204 kts 130°
2026-05-05 00:07 39.71457 -107.34212 13796 ft 204 kts 130°
2026-05-05 00:07 39.70579 -107.32779 13720 ft 202 kts 130°
2026-05-05 00:07 39.69703 -107.31343 13645 ft 203 kts 130°
2026-05-05 00:08 39.68827 -107.29920 13567 ft 201 kts 131°
2026-05-05 00:08 39.67964 -107.28499 13491 ft 200 kts 130°
2026-05-05 00:08 39.67106 -107.27080 13417 ft 200 kts 130°
2026-05-05 00:08 39.66229 -107.25657 13341 ft 201 kts 131°
2026-05-05 00:09 39.65359 -107.24246 13260 ft 198 kts 130°
2026-05-05 00:09 39.64515 -107.22857 13189 ft 199 kts 130°
2026-05-05 00:09 39.63651 -107.21448 13115 ft 200 kts 131°
2026-05-05 00:09 39.62780 -107.20047 13036 ft 199 kts 131°
2026-05-05 00:10 39.61918 -107.18641 12966 ft 199 kts 130°
2026-05-05 00:10 39.61056 -107.17232 12893 ft 199 kts 130°
2026-05-05 00:10 39.60201 -107.15836 12816 ft 197 kts 130°
2026-05-05 00:10 39.59343 -107.14446 12739 ft 198 kts 130°
2026-05-05 00:11 39.58485 -107.13050 12666 ft 197 kts 130°
2026-05-05 00:11 39.57630 -107.11660 12593 ft 198 kts 131°
2026-05-05 00:11 39.56772 -107.10265 12519 ft 198 kts 131°
2026-05-05 00:11 39.55912 -107.08868 12465 ft 198 kts 131°
2026-05-05 00:12 39.55059 -107.07481 12465 ft 196 kts 131°
2026-05-05 00:12 39.54214 -107.06119 12460 ft 192 kts 131°
2026-05-05 00:12 39.53381 -107.04765 12458 ft 191 kts 131°
2026-05-05 00:12 39.52560 -107.03430 12456 ft 190 kts 131°
2026-05-05 00:13 39.51732 -107.02090 12457 ft 190 kts 131°
2026-05-05 00:13 39.50903 -107.00749 12458 ft 191 kts 131°
2026-05-05 00:13 39.50073 -106.99405 12460 ft 192 kts 131°
2026-05-05 00:13 39.49250 -106.98071 12460 ft 192 kts 131°
2026-05-05 00:14 39.48407 -106.96720 12459 ft 193 kts 134°
2026-05-05 00:14 39.47349 -106.95663 12320 ft 193 kts 153°
2026-05-05 00:14 39.46118 -106.94961 12006 ft 196 kts 160°
2026-05-05 00:14 39.44846 -106.94389 11662 ft 194 kts 161°
2026-05-05 00:15 39.43533 -106.93871 11083 ft 198 kts 165°
2026-05-05 00:15 39.42221 -106.93411 10746 ft 189 kts 166°
2026-05-05 00:15 39.40937 -106.92961 10268 ft 190 kts 166°
2026-05-05 00:15 39.39747 -106.92548 10366 ft 167 kts 164°
2026-05-05 00:16 39.39012 -106.92265 10427 ft 159 kts 163°
2026-05-05 00:16 39.38001 -106.91872 10629 ft 151 kts 169°
2026-05-05 00:16 39.36956 -106.91596 10659 ft 155 kts 172°
2026-05-05 00:16 39.35868 -106.91353 10578 ft 161 kts 171°
2026-05-05 00:17 39.34765 -106.91110 10437 ft 164 kts 170°
2026-05-05 00:17 39.33659 -106.90807 10171 ft 155 kts 166°
2026-05-05 00:17 39.32628 -106.90466 9756 ft 154 kts 165°
2026-05-05 00:17 39.31596 -106.90169 9422 ft 150 kts 167°
2026-05-05 00:18 39.30600 -106.89864 9157 ft 143 kts 166°
2026-05-05 00:18 39.29615 -106.89643 8930 ft 144 kts 172°
2026-05-05 00:18 39.28616 -106.89521 8726 ft 142 kts 172°
2026-05-05 00:18 39.27658 -106.89297 8638 ft 136 kts 163°
2026-05-05 00:19 39.26765 -106.89008 8623 ft 127 kts 163°
2026-05-05 00:19 39.25984 -106.88641 8446 ft 109 kts 158°
2026-05-05 00:19 39.25282 -106.88313 8289 ft 108 kts 161°
2026-05-05 00:19 39.24571 -106.87971 8129 ft 112 kts 159°
2026-05-05 00:20 39.23834 -106.87631 7978 ft 110 kts 158°
2026-05-05 00:20 39.23150 -106.87282 7839 ft 100 kts 159°
2026-05-05 00:20 39.22577 -106.87013 7819 ft 70 kts 158°
2026-05-05 00:20 39.22345 -106.86894 7818 ft 18 kts 141°
2026-05-05 00:21 39.22329 -106.86777 7819 ft 13 kts 127°
2026-05-05 00:21 39.22211 -106.86714 7819 ft 21 kts 160°
2026-05-05 00:21 39.22214 -106.86647 7819 ft 12 kts 344°
2026-05-05 00:21 39.22246 -106.86684 7819 ft 0 kts 249°